Regional Weather Roundup
Issued by NWS Cleveland, OH

Home | Current Version | Previous Version | Graphics & Text | Print | Product List | Glossary On
Versions: 1 2 3 4 5 6 7 8 9 10 11 12 13 14 15 16 17 18 19 20 21 22 23 24 25 26 27 28 29 30 31 32 33 34 35 36 37 38 39 40 41 42 43 44 45 46 47 48 49 50
000
ASUS41 KCLE 271810
RWRCLE
OHIO REGIONAL WEATHER ROUNDUP
NATIONAL WEATHER SERVICE WILMINGTON, OH
100 PM EST SAT DEC 27 2014

NOTE: "FAIR" INDICATES FEW OR NO CLOUDS BELOW 12,000 FEET WITH NO
SIGNIFICANT WEATHER AND/OR OBSTRUCTIONS TO VISIBILITY.

OHZ001>008-015>018-024>027-034-035-043-044-271900-
   NORTHWEST OHIO

CITY           SKY/WX    TMP DP  RH WIND       PRES   REMARKS
DEFIANCE       CLOUDY    47  44  90 SW15G26   30.02F
FINDLAY        CLOUDY    50  42  74 S21G29    30.04F
TOLEDO EXPRESS CLOUDY    47  42  83 SW14G24   30.01F
TOLEDO METCALF CLOUDY    50  43  77 SW20G29   30.02F
LIMA           CLOUDY    50  42  74 SW18G26   30.05F
$$

OHZ009>014-019>023-028>033-038-089-271900-
   NORTHEAST OHIO

CITY           SKY/WX    TMP DP  RH WIND       PRES   REMARKS
CLE-HOPKINS    PTSUNNY   53  34  48 S15G22    30.06F
CLE-LAKEFRONT  CLOUDY    55  32  41 S14       30.03F
CUY CO. ARPT   PTSUNNY   55  34  44 SW16      30.05F
LORAIN-ELYRIA  CLOUDY    52  36  54 S15       30.04F
ASHTABULA      CLOUDY    51  37  58 S12       30.06F
AKRON-CANTON   PTSUNNY   55  30  38 SW12      30.09F
WOOSTER        CLOUDY    51  35  54 SW13      30.09F
MANSFIELD      CLOUDY    51  35  54 S15       30.07F
YOUNGSTOWN     MOSUNNY   55  37  50 S12       30.08F
$$

OHZ042-051>053-060>062-070>072-077>081-271900-
  SOUTHWEST OHIO

CITY           SKY/WX    TMP DP  RH WIND       PRES   REMARKS
CINC-COVINGTON CLOUDY    49  41  74 SW12      30.13F
CINC-LUNKEN    CLOUDY    52  44  74 SW14      30.14F
HAMILTON       CLOUDY    51  42  71 SW15G21   30.13F
DAYTON         CLOUDY    50  41  71 S16       30.10F
WRIGHT-PAT AFB CLOUDY    51  40  66 S14       30.10F
DAYTON GENERAL CLOUDY    50  40  68 SW13      30.11F
WILMINGTON     CLOUDY    51  38  60 S15       30.11F
$$

OHZ036-037-039>041-045>050-054>059-063>069-073>076-082>088-271900-
  CENTRAL AND SOUTHEAST OHIO

CITY           SKY/WX    TMP DP  RH WIND       PRES   REMARKS
COLUMBUS       CLOUDY    51  35  54 S16G22    30.13F
OSU AIRPORT    CLOUDY    51  36  56 S12       30.11F
BOLTON FIELD   CLOUDY    52  39  62 S13G21    30.13F
RICKENBACK AFB CLOUDY    51  37  57 S14       30.12F
NEWARK         PTSUNNY   52  36  54 S13       30.12F
MARION         CLOUDY    49  37  63 S15       30.09F
LANCASTER      CLOUDY    52  35  52 S10       30.14F
ZANESVILLE     CLOUDY    50  33  52 S10       30.15F
NEW PHILLY     CLOUDY    53  30  41 SW7       30.13F
$$



USA.gov is the U.S. government's official web portal to all federal, state and local government web resources and services.